Location: Głuszyca
(50.6870°N, 16.3675°E)
Time: 22:18:39
(UTC+01:00)

ISS - Visible Passes

Search period start: 19 January 2018 00:00
Search period end: 29 January 2018 00:00
Orbit: 402 x 407 km, 51.6° (Epoch: 20 January)

Date Brightness Start Highest point End Pass type
(mag) Time Alt. Az. Time Alt. Az. Time Alt. Az.
26 Jan -1.6 18:55:00 10° SSW 18:56:12 18° S 18:56:12 18° S visible
27 Jan -2.0 18:03:21 10° S 18:05:36 17° SE 18:06:11 17° SE visible
27 Jan -0.7 19:38:23 10° WSW 19:38:51 13° WSW 19:38:51 13° WSW visible
28 Jan -3.0 18:46:08 10° SW 18:48:46 41° S 18:48:46 41° S visible
